Regional Weather Roundup
Issued by NWS

Home | Current Version | Previous Version | Text Only | Print | Product List | Glossary On
Versions: 1 2 3 4 5 6 7 8 9 10 11 12 13 14 15 16 17 18 19 20 21 22 23 24 25 26 27 28 29 30 31 32 33 34 35 36 37 38 39 40 41 42 43 44 45 46 47 48 49 50
000
ASUS45 KSLC 030410
RWRUT

UTAH REGIONAL WEATHER ROUNDUP
NATIONAL WEATHER SERVICE SALT LAKE CITY UT
1000 PM MDT MON MAY 02 2016

UTZ001>011-023>025-030500-

NORTHERN UTAH

CITY           SKY/WX    TMP DP  RH WIND       PRES   REMARKS
BRIGHAM CITY   CLEAR     56  41  58 CALM      30.18R
HILL AFB       CLEAR     55  32  41 NE2       30.18R
LOGAN          CLEAR     52  35  52 CALM      30.18R
OGDEN          CLEAR     56  34  43 E3        30.17R
PROVO AIRPORT  CLEAR     55  36  47 N7        30.18R
SALT LAKE CITY CLEAR     59  37  44 NW6       30.17R
VERNAL         CLEAR     49  31  49 W6        30.19R
WENDOVER       CLEAR     57  37  47 W5        30.18R
HEBER CITY     CLEAR     43  32  65 SE3       30.19R

$$

UTZ012>022-026-027-030500-

SOUTHERN/CENTRAL UTAH

CITY           SKY/WX    TMP DP  RH WIND       PRES   REMARKS
BLANDING       CLEAR     45  38  77 N8        30.27R
BRYCE CANYON   PTCLDY    35  33  92 CALM      30.28R
CEDAR CITY     CLEAR     50  35  56 SE10      30.19R
DELTA          CLEAR     52  36  54 N3        30.18R
HANKSVILLE     CLEAR     54  36  50 CALM      30.17R
MILFORD        MOCLDY    53  37  54 SW10      30.18R
MOAB/CYNLANDS  CLEAR     56  37  49 W6        30.13R
PRICE          CLEAR     47  34  60 N8        30.20R
ST GEORGE      CLEAR     63  39  42 NE7       30.12R
KANAB          CLEAR     52  39  62 N10       30.22

$$

REGIONAL REPORTS     COLORADO/ARIZONA

CITY           SKY/WX    TMP DP  RH WIND       PRES   REMARKS
CRAIG, CO      CLEAR     41  27  57 CALM      30.21R
GRAND JUNCTION CLEAR     56  34  43 N10       30.15R
RIFLE          CLEAR     52  26  36 W6        30.17R
MONTROSE       PTCLDY    50  31  48 S7        30.20R
CORTEZ         CLOUDY    45  38  76 N3        30.20R
PAGE, AZ       CLEAR     58  38  47 CALM      30.15R
GRAND CANYON   CLEAR     39  34  82 NE3       30.23R
KINGMAN        CLEAR     60  41  49 SE8       30.08R
FLAGSTAFF      PTCLDY    37  36  96 CALM      30.22R

$$

REGIONAL REPORTS    NEVADA/IDAHO/WYOMING

CITY           SKY/WX    TMP DP  RH WIND       PRES   REMARKS
LAS VEGAS, NV  PTCLDY    75  34  22 NE9       29.99R
ELY            PTCLDY    45  33  63 S10       30.21R
ELKO           CLEAR     54  35  48 CALM      30.16R
POCATELLO, ID  CLOUDY    45  34  65 S6        30.18R
BURLEY         CLEAR     51  37  58 CALM      30.15R
EVANSTON, WY   CLEAR     47  23  38 N6        30.25R
ROCK SPRINGS   CLOUDY    44  22  41 SW6       30.23R
KEMMERER         N/A     43  12  28 NW5       30.26R

$$



USA.gov is the U.S. government's official web portal to all federal, state and local government web resources and services.